Tracking 35237 objects as of 4-Sep-2026
HD Live streaming from Space Station
objects crossing your sky now

STARLINK-37293

Track STARLINK-37293 now!
10-day predictions
STARLINK-37293 is classified as:


NORAD ID: 68978
Int'l Code: 2026-099AD
Launch date: May 1, 2026
Source: United States (US)
Launch site: AIR FORCE EASTERN TEST RANGE (AFETR)
Your satellite tracking list
Your tracking list is empty




NASA's NSSDC Master Catalog

Two Line Element Set (TLE):
1 68978U 26099AD  26247.24578418  .00019630  00000-0  59062-3 0  9998
2 68978  53.1562 151.4330 0001316  96.9237 263.1915 15.34399144 19411
Source of the keplerian elements: AFSPC